Weather History for Tulsa Jones, OK

Change the Weather History Date:

Monday, February 25, 2013

  Actual Average (KTUL) Record (KTUL)
Temperature  
Mean Temperature 40 °F 45 °F  
Max Temperature 46 °F 56 °F 82 °F (1917)
Min Temperature 33 °F 34 °F 10 °F (1965)
Degree Days  
Heating Degree Days 26 20  
Month to date heating degree days 580  
Since 1 July heating degree days 2853  
Moisture  
Dew Point 33 °F    
Average Humidity 84    
Maximum Humidity 93    
Minimum Humidity 56    
Precipitation  
Precipitation 1.43 in 0.08 in 1.21 in (2013)
Month to date precipitation 1.61  
Year to date precipitation 3.27  
Sea Level Pressure  
Sea Level Pressure 29.60 in    
Wind  
Wind Speed 11 mph (NNE)    
Max Wind Speed 22 mph    
Max Gust Speed 33 mph    
Visibility 5 miles    
Events Rain , Snow , Thunderstorm    
T = Trace of Precipitation, MM = Missing Value Source: NWS Daily Summary

Daily Weather History Graph

Daily Weather History Graph

Search for Another Location

Airport:

Trip Planner

Search our weather history database for the weather conditions in past years. The results will help you decide how hot, cold, wet, or windy it might be!

Date:

Astronomy

Feb. 25, 2013 Rise Set
Actual Time 6:58 AM CST 6:15 PM CST
Civil Twilight 6:33 AM CST 6:41 PM CST
Nautical Twilight 6:03 AM CST 7:11 PM CST
Astronomical Twilight 5:33 AM CST 7:40 PM CST
Moon 6:27 PM CST (2/25) 6:30 AM CST (2/25)
Length of Visible Light 12h 08m
Length of Day
11h 16m
Full, 100% of the Moon is Illuminated
Feb 25
Full
Feb 25
Full
Mar 4
Last Quarter
Mar 11
New
Mar 19
First Quarter

Hourly Weather History & Observations

Time (CST) Temp. Windchill Dew Point Humidity Pressure Visibility Wind Dir Wind Speed Gust Speed Precip Events Conditions
12:53 AM 46.9 °F - 33.1 °F 59% 29.83 in 10.0 mi East 6.9 mph - N/A   Overcast
1:53 AM 46.9 °F - 32.0 °F 56% 29.82 in 10.0 mi East 8.1 mph - N/A   Overcast
2:53 AM 46.0 °F 41.0 °F 32.0 °F 58% 29.80 in 10.0 mi ENE 10.4 mph - N/A   Overcast
3:53 AM 46.0 °F 41.9 °F 32.0 °F 58% 29.79 in 10.0 mi NE 8.1 mph - N/A   Overcast
4:53 AM 44.1 °F 39.5 °F 32.0 °F 63% 29.75 in 10.0 mi NE 8.1 mph - N/A   Mostly Cloudy
5:53 AM 43.0 °F 37.2 °F 30.9 °F 62% 29.70 in 10.0 mi NE 10.4 mph - N/A   Overcast
6:53 AM 43.0 °F 38.2 °F 30.9 °F 62% 29.71 in 10.0 mi NE 8.1 mph - N/A   Overcast
7:32 AM 41.0 °F 36.4 °F 33.8 °F 76% 29.68 in 10.0 mi North 6.9 mph - 0.03 in Rain , Thunderstorm Light Rain
7:53 AM 41.0 °F - 35.1 °F 79% 29.76 in 5.0 mi North - - 0.06 in Rain , Thunderstorm Light Rain
8:12 AM 39.2 °F - 35.6 °F 87% 29.73 in 3.0 mi North - - 0.08 in Rain Rain
8:43 AM 39.2 °F - 35.6 °F 87% 29.71 in 5.0 mi North - - 0.16 in Rain , Thunderstorm Rain
8:53 AM 39.0 °F - 35.1 °F 86% 29.71 in 3.0 mi North - - 0.19 in Rain Rain
9:15 AM 39.2 °F - 35.6 °F 87% 29.68 in 2.5 mi North - - 0.05 in Rain Heavy Rain
9:29 AM 39.2 °F - 35.6 °F 87% 29.65 in 2.5 mi North - - 0.08 in Rain Rain
9:44 AM 39.2 °F 30.8 °F 35.6 °F 87% 29.66 in 4.0 mi North 15.0 mph 26.5 mph 0.10 in Rain Light Rain
9:53 AM 39.0 °F 34.0 °F 35.1 °F 86% 29.73 in 3.0 mi NNW 6.9 mph 23.0 mph 0.12 in Rain Rain
10:06 AM 37.4 °F 31.4 °F 35.6 °F 93% 29.71 in 2.0 mi NNW 8.1 mph 19.6 mph 0.08 in Rain Heavy Rain
10:13 AM 37.4 °F 32.1 °F 35.6 °F 93% 29.72 in 1.5 mi Variable 6.9 mph - 0.13 in Rain Heavy Rain
10:35 AM 37.4 °F - 35.6 °F 93% 29.66 in 2.0 mi North - - 0.23 in Rain Rain
10:45 AM 37.4 °F - 35.6 °F 93% 29.66 in 3.0 mi North - - 0.24 in Rain Rain
10:53 AM 37.9 °F - 35.1 °F 89% 29.67 in 2.0 mi North - - 0.27 in Rain Rain
11:08 AM 37.4 °F - 35.6 °F 93% 29.63 in 3.0 mi North - - 0.05 in Rain Rain
11:40 AM 39.2 °F 29.6 °F 35.6 °F 87% 29.64 in 2.5 mi NNE 19.6 mph 25.3 mph 0.11 in Rain Rain
11:53 AM 39.0 °F 29.3 °F 36.0 °F 89% 29.64 in 3.0 mi NNE 19.6 mph 27.6 mph 0.13 in Rain Light Rain
12:53 PM 39.9 °F 31.1 °F 36.0 °F 86% 29.60 in 5.0 mi NE 17.3 mph 24.2 mph 0.03 in Rain Light Rain
1:53 PM 39.9 °F 30.2 °F 36.0 °F 86% 29.55 in 8.0 mi NE 20.7 mph 28.8 mph 0.01 in Rain Light Rain
2:53 PM 39.9 °F 30.2 °F 35.1 °F 83% 29.52 in 10.0 mi NE 20.7 mph 32.2 mph 0.01 in   Overcast
3:15 PM 39.2 °F 29.3 °F 35.6 °F 87% 29.49 in 10.0 mi NE 20.7 mph 32.2 mph N/A   Overcast
3:36 PM 39.2 °F 29.0 °F 35.6 °F 87% 29.48 in 10.0 mi NE 21.9 mph 32.2 mph N/A   Overcast
3:53 PM 39.9 °F 30.8 °F 35.1 °F 83% 29.51 in 10.0 mi NNE 18.4 mph 33.4 mph N/A   Overcast
4:14 PM 39.2 °F 30.8 °F 33.8 °F 81% 29.50 in 10.0 mi NE 15.0 mph 25.3 mph N/A   Overcast
4:53 PM 39.9 °F 32.5 °F 35.1 °F 83% 29.51 in 4.0 mi NNE 12.7 mph 23.0 mph 0.02 in Rain Light Rain
5:27 PM 37.4 °F 28.5 °F 33.8 °F 87% 29.49 in 2.0 mi NNE 15.0 mph 21.9 mph 0.05 in Rain Rain
5:34 PM 37.4 °F 29.3 °F 33.8 °F 87% 29.49 in 1.5 mi NNE 12.7 mph 21.9 mph 0.06 in Rain Rain
5:50 PM 37.4 °F 28.2 °F 35.6 °F 93% 29.50 in 1.5 mi NE 16.1 mph 23.0 mph 0.08 in Rain Light Rain
5:53 PM 37.9 °F 29.2 °F 35.1 °F 89% 29.52 in 1.8 mi NE 15.0 mph 23.0 mph 0.08 in Rain Light Rain
6:08 PM 39.2 °F 29.8 °F 35.6 °F 87% 29.51 in 2.5 mi NNE 18.4 mph 26.5 mph 0.01 in Rain Light Rain
6:16 PM 37.4 °F 28.9 °F 35.6 °F 93% 29.51 in 3.0 mi NNE 13.8 mph 26.5 mph 0.03 in Rain Rain
6:53 PM 37.9 °F 30.5 °F 35.1 °F 89% 29.55 in 4.0 mi NNE 11.5 mph - 0.11 in Rain Rain
7:53 PM 35.1 °F 26.9 °F 32.0 °F 89% 29.55 in 4.0 mi NNE 11.5 mph - 0.18 in Snow Light Snow
8:10 PM 33.8 °F 26.4 °F 30.2 °F 87% 29.52 in 2.0 mi North 9.2 mph - 0.05 in Snow Light Snow
8:20 PM 33.8 °F 25.8 °F 30.2 °F 87% 29.52 in 1.8 mi North 10.4 mph - 0.06 in Snow Light Snow
8:30 PM 33.8 °F 25.8 °F 30.2 °F 87% 29.51 in 2.0 mi North 10.4 mph 16.1 mph 0.07 in Snow Light Snow
8:43 PM 33.8 °F 27.0 °F 30.2 °F 87% 29.51 in 3.0 mi North 8.1 mph - 0.08 in Snow Light Snow
8:53 PM 33.1 °F 24.9 °F 30.9 °F 92% 29.53 in 2.0 mi North 10.4 mph 16.1 mph 0.10 in Snow Light Snow
9:06 PM 33.8 °F 25.8 °F 30.2 °F 87% 29.50 in 1.8 mi North 10.4 mph 17.3 mph 0.02 in Snow Light Snow
9:13 PM 33.8 °F 25.3 °F 30.2 °F 87% 29.50 in 2.0 mi North 11.5 mph 18.4 mph 0.03 in Snow Light Snow
9:23 PM 33.8 °F 25.8 °F 30.2 °F 87% 29.50 in 2.5 mi North 10.4 mph - 0.04 in Snow Light Snow
9:34 PM 33.8 °F 25.8 °F 30.2 °F 87% 29.50 in 3.0 mi North 10.4 mph - 0.05 in Snow Light Snow
9:50 PM 33.8 °F 25.8 °F 30.2 °F 87% 29.51 in 2.0 mi North 10.4 mph 19.6 mph 0.06 in Snow Light Snow
9:53 PM 34.0 °F 24.2 °F 30.9 °F 89% 29.53 in 2.0 mi North 15.0 mph 21.9 mph 0.07 in Snow Light Snow
9:59 PM 33.8 °F 26.4 °F 30.2 °F 87% 29.51 in 1.8 mi North 9.2 mph 21.9 mph 0.01 in Snow Light Snow
10:06 PM 33.8 °F 25.3 °F 30.2 °F 87% 29.50 in 2.5 mi North 11.5 mph 18.4 mph 0.01 in Snow Light Snow
10:18 PM 33.8 °F 25.3 °F 30.2 °F 87% 29.50 in 3.0 mi North 11.5 mph 21.9 mph 0.02 in Snow Light Snow
10:53 PM 34.0 °F 24.6 °F 30.9 °F 89% 29.52 in 4.0 mi North 13.8 mph - 0.03 in Snow Light Snow
11:53 PM 34.0 °F 24.6 °F 30.9 °F 89% 29.52 in 6.0 mi North 13.8 mph 23.0 mph 0.02 in Snow Light Snow